Windom, MN

1:38 AM CDT on May 30, 2017 (GMT -0500)
Windom Municipal

Weather History for KMWM - January, 2014

Change the Weather History Date:

Sunday, January 19, 2014

  Actual Average Record
Temperature  
Mean Temperature 29 °F -  
Max Temperature 39 °F 24 °F 48 °F (1981)
Min Temperature 19 °F 2 °F -30 °F (1970)
Degree Days  
Heating Degree Days 36    
Moisture  
Dew Point 25 °F    
Average Humidity 80    
Maximum Humidity 100    
Minimum Humidity 69    
Precipitation  
Precipitation 0.00 in - - ()
Sea Level Pressure  
Sea Level Pressure 29.63 in    
Wind  
Wind Speed 16 mph (West)    
Max Wind Speed 24 mph    
Max Gust Speed 31 mph    
Visibility 10 miles    
Events      
Averages and records for this station are not official NWS values.
T = Trace of Precipitation, MM = Missing Value Source: NWS Daily Summary

Daily Weather History Graph

Daily Weather History Graph

Search for Another Location

Airport or City:

Trip Planner

Search our weather history database for the weather conditions in past years. The results will help you decide how hot, cold, wet, or windy it might be!

Date:

Astronomy

Jan. 19, 2014 Rise Set
Actual Time 7:49 AM CST 5:13 PM CST
Civil Twilight 7:17 AM CST 5:45 PM CST
Nautical Twilight 6:42 AM CST 6:20 PM CST
Astronomical Twilight 6:07 AM CST 6:55 PM CST
Moon 9:01 PM CST (1/19) 9:11 AM CST (1/19)
Length of Visible Light 10h 27m
Length of Day
9h 24m
Waning Gibbous, 89% of the Moon is Illuminated
Jan 19
Waning Gibbous
Jan 23
Last Quarter
Jan 30
New
Feb 6
First Quarter
Feb 14
Full

Hourly Weather History & Observations

Time (CST) Temp. Windchill Dew Point Humidity Pressure Visibility Wind Dir Wind Speed Gust Speed Precip Events Conditions
12:12 AM 19.4 °F 3.2 °F 17.6 °F 93% 29.78 in 10.0 mi SW 20.7 mph 24.2 mph N/A   Clear
12:32 AM 21.2 °F 6.0 °F 17.6 °F 86% 29.77 in 10.0 mi SW 19.6 mph - N/A   Clear
12:53 AM 21.2 °F 7.8 °F 19.4 °F 93% 29.76 in 10.0 mi SW 15.0 mph - N/A   Clear
1:12 AM 21.2 °F 6.4 °F 19.4 °F 93% 29.75 in 10.0 mi SW 18.4 mph 23.0 mph N/A   Clear
1:32 AM 21.2 °F 6.0 °F 19.4 °F 93% 29.73 in 10.0 mi SW 19.6 mph 24.2 mph N/A   Clear
1:53 AM 21.2 °F 6.0 °F 19.4 °F 93% 29.72 in 10.0 mi SW 19.6 mph 25.3 mph N/A   Clear
2:12 AM 23.0 °F 8.3 °F 19.4 °F 86% 29.70 in 10.0 mi SW 19.6 mph 25.3 mph N/A   Clear
2:32 AM 24.8 °F 11.1 °F 21.2 °F 86% 29.69 in 10.0 mi SW 18.4 mph 26.5 mph N/A   Clear
2:53 AM 24.8 °F 12.4 °F 21.2 °F 86% 29.70 in 10.0 mi SW 15.0 mph - N/A   Clear
3:12 AM 24.8 °F 12.9 °F 19.4 °F 80% 29.68 in 10.0 mi SW 13.8 mph - N/A   Clear
3:32 AM 24.8 °F 12.4 °F 21.2 °F 86% 29.67 in 10.0 mi WSW 15.0 mph 20.7 mph N/A   Clear
3:53 AM 26.6 °F 13.4 °F 21.2 °F 80% 29.66 in 10.0 mi WSW 18.4 mph 23.0 mph N/A   Clear
4:12 AM 26.6 °F 13.8 °F 21.2 °F 80% 29.65 in 10.0 mi SW 17.3 mph 21.9 mph N/A   Clear
4:32 AM 24.8 °F 11.9 °F 19.4 °F 80% 29.63 in 10.0 mi SW 16.1 mph 20.7 mph N/A   Clear
4:53 AM 24.8 °F 12.4 °F 19.4 °F 80% 29.62 in 10.0 mi SW 15.0 mph 21.9 mph N/A   Clear
5:12 AM 24.8 °F 12.4 °F 19.4 °F 80% 29.62 in 10.0 mi SW 15.0 mph 20.7 mph N/A   Clear
5:32 AM 24.8 °F 14.0 °F 19.4 °F 80% 29.63 in 10.0 mi WSW 11.5 mph - N/A   Clear
5:53 AM 24.8 °F 12.4 °F 19.4 °F 80% 29.62 in 10.0 mi WSW 15.0 mph 18.4 mph N/A   Clear
6:12 AM 26.6 °F 13.8 °F 19.4 °F 74% 29.61 in 10.0 mi WSW 17.3 mph - N/A   Clear
6:32 AM 26.6 °F 14.7 °F 19.4 °F 74% 29.61 in 10.0 mi WSW 15.0 mph - N/A   Clear
6:53 AM 26.6 °F 15.7 °F 19.4 °F 74% 29.61 in 10.0 mi West 12.7 mph - N/A   Clear
7:12 AM 24.8 °F 14.6 °F 19.4 °F 80% 29.62 in 10.0 mi WSW 10.4 mph - N/A   Clear
7:32 AM 24.8 °F 14.6 °F 19.4 °F 80% 29.61 in 10.0 mi WSW 10.4 mph - N/A   Clear
7:53 AM 24.8 °F 13.4 °F 19.4 °F 80% 29.58 in 10.0 mi WSW 12.7 mph - N/A   Clear
8:12 AM 26.6 °F 15.7 °F 19.4 °F 74% 29.58 in 10.0 mi WSW 12.7 mph - N/A   Clear
8:32 AM 24.8 °F 12.4 °F 19.4 °F 80% 29.60 in 10.0 mi WSW 15.0 mph - N/A   Clear
8:52 AM 26.6 °F 13.4 °F 19.4 °F 74% 29.60 in 10.0 mi WSW 18.4 mph - N/A   Clear
9:12 AM 26.6 °F 13.8 °F 19.4 °F 74% 29.60 in 10.0 mi WSW 17.3 mph - N/A   Clear
9:33 AM 26.6 °F 14.3 °F 21.2 °F 80% 29.61 in 10.0 mi WSW 16.1 mph - N/A   Clear
9:52 AM 28.4 °F 18.0 °F 21.2 °F 74% 29.60 in 10.0 mi WSW 12.7 mph - N/A   Clear
10:12 AM 30.2 °F 24.3 °F 21.2 °F 69% 29.59 in 10.0 mi WSW 5.8 mph - N/A   Clear
10:33 AM 30.2 °F 21.9 °F 24.8 °F 80% 29.58 in 10.0 mi WSW 9.2 mph - N/A   Clear
10:52 AM 32.0 °F 20.8 °F 24.8 °F 75% 29.59 in 10.0 mi West 17.3 mph - N/A   Clear
11:12 AM 33.8 °F 23.9 °F 24.8 °F 70% 29.58 in 10.0 mi West 15.0 mph - N/A   Clear
11:33 AM 33.8 °F 24.8 °F 26.6 °F 75% 29.56 in 10.0 mi WSW 12.7 mph - N/A   Clear
11:52 AM 35.6 °F 26.2 °F 26.6 °F 70% 29.54 in 10.0 mi WSW 15.0 mph - N/A   Clear
12:12 PM 35.6 °F 25.5 °F 26.6 °F 70% 29.53 in 10.0 mi WSW 17.3 mph - N/A   Clear
12:32 PM 35.6 °F 25.9 °F 26.6 °F 70% 29.51 in 10.0 mi WSW 16.1 mph - N/A   Clear
12:52 PM 35.6 °F 25.5 °F 28.4 °F 75% 29.52 in 10.0 mi WSW 17.3 mph - N/A   Clear
1:13 PM 37.4 °F 27.2 °F 28.4 °F 70% 29.50 in 10.0 mi WSW 19.6 mph - N/A   Clear
1:32 PM 37.4 °F 27.5 °F 28.4 °F 70% 29.50 in 10.0 mi WSW 18.4 mph - N/A   Clear
1:52 PM 37.4 °F 27.2 °F 30.2 °F 75% 29.48 in 10.0 mi WSW 19.6 mph - N/A   Clear
2:13 PM 39.2 °F 29.3 °F 30.2 °F 70% 29.48 in 10.0 mi West 20.7 mph 25.3 mph N/A   Clear
2:32 PM 39.2 °F 29.0 °F 30.2 °F 70% 29.49 in 10.0 mi West 21.9 mph 26.5 mph N/A   Clear
2:53 PM 39.2 °F 28.5 °F 30.2 °F 70% 29.50 in 10.0 mi West 24.2 mph 31.1 mph N/A   Clear
3:12 PM 39.2 °F 28.5 °F 30.2 °F 70% 29.51 in 10.0 mi West 24.2 mph 31.1 mph N/A   Clear
3:33 PM 39.2 °F 28.7 °F 30.2 °F 70% 29.53 in 10.0 mi West 23.0 mph - N/A   Clear
3:53 PM 39.2 °F 29.3 °F 30.2 °F 70% 29.55 in 10.0 mi West 20.7 mph 25.3 mph N/A   Clear
4:12 PM 39.2 °F 29.8 °F 30.2 °F 70% 29.57 in 10.0 mi West 18.4 mph - N/A   Clear
4:33 PM 37.4 °F 27.8 °F 30.2 °F 75% 29.59 in 10.0 mi West 17.3 mph 24.2 mph N/A   Clear
4:52 PM 39.2 °F 30.8 °F 30.2 °F 70% 29.59 in 10.0 mi WNW 15.0 mph - N/A   Clear
5:12 PM 37.4 °F 28.5 °F 30.2 °F 75% 29.61 in 10.0 mi WNW 15.0 mph - N/A   Clear
5:33 PM 37.4 °F 29.3 °F 30.2 °F 75% 29.61 in 10.0 mi WNW 12.7 mph - N/A   Clear
5:52 PM 35.6 °F 27.1 °F 30.2 °F 81% 29.63 in 10.0 mi West 12.7 mph - N/A   Clear
6:12 PM 37.4 °F 28.2 °F 30.2 °F 75% 29.64 in 10.0 mi WNW 16.1 mph 20.7 mph N/A   Clear
6:33 PM 37.4 °F 28.9 °F 30.2 °F 75% 29.65 in 10.0 mi WNW 13.8 mph - N/A   Clear
6:52 PM 35.6 °F 28.0 °F 30.2 °F 81% 29.67 in 10.0 mi WNW 10.4 mph - N/A   Scattered Clouds
7:12 PM 35.6 °F 28.6 °F 30.2 °F 81% 29.68 in 10.0 mi NW 9.2 mph - N/A   Mostly Cloudy
7:33 PM 35.6 °F 25.5 °F 30.2 °F 81% 29.69 in 10.0 mi NW 17.3 mph - N/A   Overcast
7:52 PM 35.6 °F 25.5 °F 30.2 °F 81% 29.69 in 10.0 mi NW 17.3 mph 24.2 mph N/A   Overcast
8:13 PM 35.6 °F 27.1 °F 30.2 °F 81% 29.70 in 10.0 mi NW 12.7 mph - N/A   Overcast
8:33 PM 33.8 °F 25.3 °F 30.2 °F 87% 29.70 in 10.0 mi North 11.5 mph - N/A   Overcast
8:52 PM 30.2 °F 21.9 °F 28.4 °F 93% 29.72 in 10.0 mi NNW 9.2 mph - N/A   Mostly Cloudy
9:13 PM 30.2 °F 22.6 °F 28.4 °F 93% 29.72 in 10.0 mi NNW 8.1 mph - N/A   Scattered Clouds
9:32 PM 30.2 °F 23.4 °F 28.4 °F 93% 29.73 in 10.0 mi NNW 6.9 mph - N/A   Mostly Cloudy
9:52 PM 30.2 °F 25.4 °F 28.4 °F 93% 29.73 in 10.0 mi NW 4.6 mph - N/A   Scattered Clouds
10:13 PM 28.4 °F 22.2 °F 26.6 °F 93% 29.74 in 10.0 mi NW 5.8 mph - N/A   Clear
10:32 PM 28.4 °F 22.2 °F 26.6 °F 93% 29.74 in 10.0 mi NW 5.8 mph - N/A   Clear
10:52 PM 26.6 °F 18.2 °F 24.8 °F 93% 29.74 in 10.0 mi WNW 8.1 mph - N/A   Clear
11:13 PM 26.6 °F 20.0 °F 24.8 °F 93% 29.75 in 10.0 mi West 5.8 mph - N/A   Clear
11:32 PM 26.6 °F 20.0 °F 24.8 °F 93% 29.75 in 10.0 mi West 5.8 mph - N/A   Clear
11:52 PM 24.8 °F 19.1 °F 24.8 °F 100% 29.75 in 10.0 mi WSW 4.6 mph - N/A   Clear